Вернуться в каталог

COSMOS 1275 DEB

АктивенPO
NORAD 14925·DEBRIS·🇷🇺 Russia

Запущен Jun 4, 1981 с Plesetsk Cosmodrome

Loading…

Ближайшие Пролёты (ближайшие 24 часа)

TLE

СвежийSource: Space-Track

Эпоха: Sep 14, 2026, 14:20 UTC

1 14925U 81053JX  26257.59783009  .00003011  00000-0  10378-2 0  9997
2 14925  82.8523 211.1726 0019179 127.3951 232.8988 14.35566987293453

Отслеживайте COSMOS 1275 DEB в реальном времени с AllMySat

Download on the App Store